When you browse on this site, cookies collect data to enhance your experience and personalize the content and advertising you see.
Visit our Privacy Policy to learn more. By continuing to use the site, you agree to this use of cookies and data.
  • In Schweiz
  • Länderverzeichnis
  • Für 7 Tage
  • Wassertemperatur
  • Satellitenkarten
  • Wetterkarte
  • Widgets
  • user-avatar
    Anmelden

    Stündliche Wetter Pleskachi

    Heute, 23 Juli, Dienstag

    Zeit Temperatur Niederschläge Wind Luftdruck Luftfeuchtigkeit
    00:00 +18°C° 0 mm 3 m/S 753 mmHg 93%
    01:00 +18°C° 0 mm 3 m/S 753 mmHg 93%
    02:00 +17°C° 0 mm 2 m/S 753 mmHg 93%
    03:00 +17°C° 0 mm 2 m/S 753 mmHg 93%
    04:00 +17°C° 0 mm 2 m/S 752 mmHg 92%
    05:00 +17°C° 0 mm 2 m/S 752 mmHg 92%
    06:00 +18°C° 0 mm 3 m/S 752 mmHg 87%
    07:00 +19°C° 0 mm 3 m/S 752 mmHg 82%
    08:00 +21°C° 0 mm 4 m/S 752 mmHg 77%
    09:00 +22°C° 0 mm 4 m/S 752 mmHg 71%
    10:00 +23°C° 0 mm 4 m/S 752 mmHg 66%
    11:00 +25°C° 0 mm 4 m/S 752 mmHg 60%
    12:00 +26°C° 0 mm 4 m/S 751 mmHg 57%
    13:00 +26°C° 0 mm 4 m/S 751 mmHg 53%
    14:00 +26°C° 0 mm 4 m/S 751 mmHg 50%
    15:00 +26°C° 0.1 mm 4 m/S 751 mmHg 52%
    16:00 +25°C° 0.1 mm 4 m/S 751 mmHg 55%
    17:00 +25°C° 0.1 mm 4 m/S 751 mmHg 57%
    18:00 +22°C° 0.1 mm 4 m/S 751 mmHg 66%
    19:00 +20°C° 0.1 mm 3 m/S 751 mmHg 75%
    20:00 +18°C° 0.1 mm 3 m/S 750 mmHg 84%
    21:00 +17°C° 0 mm 3 m/S 751 mmHg 86%
    22:00 +17°C° 0 mm 2 m/S 751 mmHg 87%
    23:00 +16°C° 0 mm 2 m/S 751 mmHg 88%

    Morgen, 24 Juli, Mittwoch

    Zeit Temperatur Niederschläge Wind Luftdruck Luftfeuchtigkeit
    00:00 +16°C° 0 mm 2 m/S 750 mmHg 90%
    01:00 +16°C° 0 mm 2 m/S 750 mmHg 91%
    02:00 +16°C° 0 mm 2 m/S 750 mmHg 93%
    03:00 +16°C° 0.1 mm 3 m/S 750 mmHg 92%
    04:00 +16°C° 0.1 mm 3 m/S 750 mmHg 92%
    05:00 +16°C° 0.1 mm 3 m/S 749 mmHg 91%
    06:00 +17°C° 0.1 mm 3 m/S 749 mmHg 90%
    07:00 +18°C° 0.1 mm 4 m/S 749 mmHg 88%
    08:00 +19°C° 0.1 mm 4 m/S 749 mmHg 87%
    09:00 +20°C° 0.2 mm 5 m/S 749 mmHg 82%
    10:00 +21°C° 0.2 mm 5 m/S 749 mmHg 78%
    11:00 +22°C° 0.2 mm 5 m/S 749 mmHg 74%
    12:00 +22°C° 0.2 mm 5 m/S 749 mmHg 71%
    13:00 +23°C° 0.2 mm 6 m/S 749 mmHg 67%
    14:00 +24°C° 0.2 mm 6 m/S 749 mmHg 63%
    15:00 +23°C° 0.2 mm 6 m/S 749 mmHg 65%
    16:00 +23°C° 0.2 mm 6 m/S 749 mmHg 68%
    17:00 +23°C° 0.2 mm 6 m/S 749 mmHg 70%
    18:00 +22°C° 0.5 mm 5 m/S 749 mmHg 76%
    19:00 +20°C° 0.5 mm 4 m/S 749 mmHg 82%
    20:00 +19°C° 0.5 mm 4 m/S 750 mmHg 88%
    21:00 +18°C° 0 mm 4 m/S 750 mmHg 89%
    22:00 +18°C° 0 mm 4 m/S 750 mmHg 91%
    23:00 +17°C° 0 mm 4 m/S 750 mmHg 92%

    übermorgen, 25 Juli, Donnerstag

    Zeit Temperatur Niederschläge Wind Luftdruck Luftfeuchtigkeit
    00:00 +17°C° 0 mm 4 m/S 750 mmHg 92%
    01:00 +17°C° 0 mm 4 m/S 750 mmHg 93%
    02:00 +15°C° 0 mm 4 m/S 750 mmHg 93%
    03:00 +15°C° 0 mm 4 m/S 750 mmHg 93%
    04:00 +15°C° 0 mm 4 m/S 751 mmHg 93%
    05:00 +14°C° 0 mm 4 m/S 751 mmHg 93%
    06:00 +17°C° 0 mm 4 m/S 751 mmHg 87%
    07:00 +18°C° 0 mm 4 m/S 751 mmHg 81%
    08:00 +20°C° 0 mm 4 m/S 751 mmHg 75%
    09:00 +21°C° 0 mm 5 m/S 751 mmHg 70%
    10:00 +22°C° 0 mm 5 m/S 751 mmHg 65%
    11:00 +23°C° 0 mm 6 m/S 751 mmHg 60%
    12:00 +24°C° 0.2 mm 6 m/S 751 mmHg 58%
    13:00 +24°C° 0.2 mm 6 m/S 751 mmHg 57%
    14:00 +26°C° 0.2 mm 6 m/S 751 mmHg 56%
    15:00 +26°C° 0 mm 6 m/S 751 mmHg 55%
    16:00 +26°C° 0 mm 6 m/S 751 mmHg 54%
    17:00 +24°C° 0 mm 6 m/S 751 mmHg 54%
    18:00 +23°C° 0 mm 5 m/S 751 mmHg 60%
    19:00 +21°C° 0 mm 4 m/S 751 mmHg 67%
    20:00 +20°C° 0 mm 2 m/S 751 mmHg 73%
    21:00 +19°C° 0.2 mm 2 m/S 751 mmHg 76%
    22:00 +18°C° 0.2 mm 2 m/S 751 mmHg 80%
    23:00 +18°C° 0.2 mm 2 m/S 751 mmHg 83%

    26 Juli, Freitag

    Zeit Temperatur Niederschläge Wind Luftdruck Luftfeuchtigkeit
    00:00 +17°C° 0.3 mm 2 m/S 750 mmHg 85%
    01:00 +17°C° 0.3 mm 2 m/S 750 mmHg 87%
    02:00 +17°C° 0.3 mm 2 m/S 750 mmHg 90%
    03:00 +16°C° 0 mm 2 m/S 750 mmHg 90%
    04:00 +16°C° 0 mm 2 m/S 750 mmHg 91%
    05:00 +16°C° 0 mm 2 m/S 749 mmHg 91%
    06:00 +18°C° 0 mm 2 m/S 749 mmHg 85%
    07:00 +19°C° 0 mm 2 m/S 749 mmHg 79%
    08:00 +21°C° 0 mm 2 m/S 749 mmHg 73%
    09:00 +23°C° 0.1 mm 1 m/S 749 mmHg 67%
    10:00 +24°C° 0.1 mm 1 m/S 749 mmHg 61%
    11:00 +26°C° 0.1 mm 1 m/S 749 mmHg 55%
    12:00 +26°C° 0.1 mm 1 m/S 749 mmHg 52%
    13:00 +27°C° 0.1 mm 1 m/S 748 mmHg 50%
    14:00 +28°C° 0.1 mm 1 m/S 748 mmHg 47%
    15:00 +27°C° 0.1 mm 1 m/S 748 mmHg 49%
    16:00 +27°C° 0.1 mm 1 m/S 748 mmHg 50%
    17:00 +27°C° 0.1 mm 1 m/S 748 mmHg 52%
    18:00 +25°C° 0.1 mm 1 m/S 748 mmHg 59%
    19:00 +23°C° 0.1 mm 1 m/S 748 mmHg 65%
    20:00 +22°C° 0.1 mm 1 m/S 748 mmHg 72%
    21:00 +21°C° 0 mm 1 m/S 748 mmHg 76%
    22:00 +20°C° 0 mm 1 m/S 748 mmHg 79%
    23:00 +18°C° 0 mm 2 m/S 748 mmHg 83%

    27 Juli, Samstag

    Zeit Temperatur Niederschläge Wind Luftdruck Luftfeuchtigkeit
    00:00 +19°C° 0 mm 1 m/S 747 mmHg 85%
    01:00 +19°C° 0 mm 1 m/S 747 mmHg 86%
    02:00 +18°C° 0 mm 1 m/S 747 mmHg 88%
    03:00 +18°C° 0 mm 1 m/S 747 mmHg 90%
    04:00 +17°C° 0 mm 2 m/S 747 mmHg 93%
    05:00 +16°C° 0 mm 2 m/S 747 mmHg 96%
    06:00 +17°C° 0 mm 2 m/S 746 mmHg 91%
    07:00 +19°C° 0 mm 2 m/S 746 mmHg 87%
    08:00 +20°C° 0 mm 2 m/S 746 mmHg 83%
    09:00 +21°C° 0 mm 2 m/S 746 mmHg 78%
    10:00 +23°C° 0 mm 2 m/S 746 mmHg 73%
    11:00 +24°C° 0 mm 2 m/S 746 mmHg 68%
    12:00 +25°C° 0.7 mm 2 m/S 746 mmHg 64%
    13:00 +26°C° 0.7 mm 1 m/S 746 mmHg 60%
    14:00 +27°C° 0.7 mm 1 m/S 746 mmHg 56%
    15:00 +27°C° 0.7 mm 1 m/S 746 mmHg 57%
    16:00 +27°C° 0.7 mm 2 m/S 745 mmHg 58%
    17:00 +26°C° 0.7 mm 2 m/S 745 mmHg 59%
    18:00 +25°C° 0.5 mm 2 m/S 745 mmHg 66%
    19:00 +22°C° 0.5 mm 3 m/S 745 mmHg 74%
    20:00 +20°C° 0.5 mm 3 m/S 745 mmHg 82%
    21:00 +20°C° 0.2 mm 3 m/S 745 mmHg 85%
    22:00 +19°C° 0.2 mm 3 m/S 745 mmHg 88%
    23:00 +19°C° 0.2 mm 3 m/S 746 mmHg 91%

    28 Juli, Sonntag

    Zeit Temperatur Niederschläge Wind Luftdruck Luftfeuchtigkeit
    00:00 +18°C° 0.3 mm 3 m/S 745 mmHg 91%
    01:00 +18°C° 0.3 mm 2 m/S 745 mmHg 92%
    02:00 +18°C° 0.3 mm 2 m/S 745 mmHg 93%
    03:00 +17°C° 0 mm 2 m/S 745 mmHg 94%
    04:00 +17°C° 0 mm 2 m/S 745 mmHg 95%
    05:00 +17°C° 0 mm 2 m/S 745 mmHg 96%
    06:00 +19°C° 0 mm 3 m/S 745 mmHg 90%
    07:00 +20°C° 0 mm 3 m/S 745 mmHg 85%
    08:00 +22°C° 0 mm 3 m/S 745 mmHg 80%
    09:00 +24°C° 0.5 mm 3 m/S 745 mmHg 77%
    10:00 +25°C° 0.5 mm 3 m/S 745 mmHg 73%
    11:00 +26°C° 0.5 mm 3 m/S 745 mmHg 69%
    12:00 +26°C° 0.7 mm 3 m/S 745 mmHg 69%
    13:00 +26°C° 0.7 mm 3 m/S 744 mmHg 68%
    14:00 +26°C° 0.7 mm 3 m/S 744 mmHg 68%
    15:00 +26°C° 0.7 mm 3 m/S 744 mmHg 69%
    16:00 +26°C° 0.7 mm 3 m/S 744 mmHg 71%
    17:00 +26°C° 0.7 mm 3 m/S 744 mmHg 72%
    18:00 +25°C° 0.2 mm 3 m/S 744 mmHg 77%
    19:00 +22°C° 0.2 mm 3 m/S 744 mmHg 83%
    20:00 +21°C° 0.2 mm 3 m/S 744 mmHg 88%
    21:00 +21°C° 0.1 mm 4 m/S 744 mmHg 90%
    22:00 +20°C° 0.1 mm 5 m/S 745 mmHg 92%
    23:00 +19°C° 0.1 mm 6 m/S 745 mmHg 94%
    Mehr zeigen